Location: Unspecified
(0.0000°N, 0.0000°E)
Time: 16:27:34
(UTC+00:00)

N. Korean satellite - Pass Details

Date: 09 December 2021
Orbit: 447 x 490 km, 97.3° (Epoch: 27 January)

Event Time Altitude Azimuth Distance (km) Brightness Sun altitude
Rises 04:12:32 0° 37° (NE) 2,447 10.3 -22.9°
Reaches altitude 10° 04:15:01 10° 57° (ENE) 1,586 9.5 -22.3°
Maximum altitude 04:17:24 18° 101° (ESE) 1,188 9.4 -21.8°
Drops below altitude 10° 04:19:49 10° 146° (SSE) 1,608 10.0 -21.2°
Sets 04:22:20 0° 166° (SSE) 2,497 10.7 -20.6°
